Le-Sportif










Résultats

Foulées des 4 Portes / 2003
67 - Rosheim - Bas-Rhin - France

28

Sep



10 Km
Running (on road)

1173 arrivants
982 hommes | 191 femmes
temps moyen : 00:49:42


classement statistiques modifier le filtre
cliquez sur le nom du participant pour consulter le détail des temps

Class. Temps Nom Club Dossard Categ.  
1 00:34:22 EPP Dominique  TECHNO SPORTS MUTZIG 23 V1M M
2 00:34:30 BALTZER Claude  SP ROSHEIM 39 V1M M
6 00:36:01 SCHOEHNAL Michel  AS La Claquette 33 V1M M
8 00:36:32 BENTZ Francis  ASPTT Strasbourg 24 V1M M
10 00:36:42 PECK Philippe  AS La Claquette 32 V1M M
11 00:36:54 Dahl Alain  Ottrott 3304 V1M M
16 00:37:29 BEHRENS Jacky  Bischoffsheim 17 V1M M
17 00:37:31 BOTTIN Jean Georges  Sport 2000 7 V1M M
20 00:37:40 CUNAT Daniel  ? 35 V1M M
22 00:38:00 VIOLET Henri  AS La Claquette 27 V1M M
24 00:38:14 MEYER Claude  ASPTT Strasbourg 465 V1M M
27 00:38:27 BASTIAN Jean-Marc  STUTZHEIM 1141 V1M M
29 00:38:29 HUCK Denis  HEINEKEN 515 V1M M
30 00:38:32 LOOSE Wilfrid  CA MALLING 18 V1M M
37 00:38:49 DA ROCHA Pedro  AS La Claquette 455 V1M M
38 00:38:55 KIEFFER Jean Marc  ESRCAC 836 V1M M
47 00:39:18 BELINGAR Jean Paul  BACO 877 V1M M
48 00:39:25 LINET Emile  ACCA 4 V1M M
49 00:39:26 JAKOB Didier  HEILIGENSTEIN 582 V1M M
52 00:39:39 SCHELL Gilbert  MESSIER BUGATTI 107 V1M M
64 00:40:07 Bayer Jean-Georges  La Saline 1380 V1M M
68 00:40:15 STEQUELBOUT Patrick  HEINEKEN 510 V1M M
82 00:40:33 HATTEMER Gérard  STRASBOURG 630 V1M M
87 00:40:42 RUFFENACH Gilbert  SUPRA 170 V1M M
89 00:40:47 URY MICHEL  BOURG BRUCHE 1415 V1M M
90 00:40:52 CHAPELLE Christophe  ASC Hager Tehalit Flash 1173 V1M M
91 00:40:52 BRIGNON Guy  AS La Claquette 454 V1M M
95 00:40:59 EMMENDOEFFER Serge  AS La Claquette 456 V1M M
104 00:41:15 Jehl Dominique  SCS Natation 1383 V1M M
106 00:41:16 BREYSACH Bernard  AERE 622 V1M M
109 00:41:18 MATZINGER Michel  ROSENAU 867 V1M M
123 00:41:33 SCHUPP Jean  CHATENOIS 364 V1M M
125 00:41:36 NASS Alphonse  ACCA 740 V1M M
126 00:41:38 JALABERT Didier  CA MALLING 320 V1M M
128 00:41:41 JUNG Dominique  FLEXBOURG 369 V1M M
129 00:41:41 ARNOLD Joseph  HEINEKEN 503 V1M M
131 00:41:44 KIREN Alain  CA MALLING 326 V1M M
132 00:41:50 HALTER Serge  STRASBOURG 87 V1M M
133 00:41:51 MOLBERT Gerard  STRASBOURG 760 V1M M
145 00:42:06 BOULOU Jean Claude  BRUKER 608 V1M M
148 00:42:09 BRANSWYK Pascal  EUROCORPS 539 V1M M
151 00:42:13 MULLER Pascal  ESCHAU 579 V1M M
152 00:42:16 FRALONARDO Michel  CA MALLING 336 V1M M
153 00:42:20 GEIN Pierrot  SCHNOUPY 1150 V1M M
154 00:42:21 JACQUOT Thierry  GOXWILLER 1144 V1M M
155 00:42:21 BOUVIER-MASSON Pascal  44E RT 1004 V1M M
162 00:42:30 LAMBERT Damien  CLESTRA 721 V1M M
167 00:42:38 DURUPT Emmanuel  MOLSHEIM 360 V1M M
169 00:42:43 HAAG Jean Marie  SCHERWILLER 585 V1M M
170 00:42:43 JAINDL Eric  HAGUENAU 1052 V1M M
176 00:42:48 GROSS Joseph  BASKETTSJ SAVERNE 865 V1M M
177 00:42:50 COVALCIQUE Thierry  FEGERSHEIM 366 V1M M
181 00:42:58 WECKERLE Jean Luc  CAP Dinsheim 559 V1M M
183 00:43:02 STRICHER Antoine  FFEPGV 1074 V1M M
186 00:43:03 WALTER Bernard  Steelcase running club 611 V1M M
187 00:43:04 BEN SAIDA Abdou  CLDO 304 V1M M
192 00:43:10 HAUSWIRTH Michel  ENTZHEIM 117 V1M M
193 00:43:11 LOUX Robert  AS La Claquette 1025 V1M M
194 00:43:13 BETSCH Patrick  BREITENAU 545 V1M M
201 00:43:24 ZIMBER Pascal  BNP PARIBAS 723 V1M M
204 00:43:27 FABER Raymond  SP-LANGATTE 254 V1M M
206 00:43:29 FABER Lucien  DOLVING 293 V1M M
207 00:43:30 SCHAEFFER DOMINIQUE  AMICALE DES MOTARDS 1399 V1M M
222 00:43:47 PERICO Alain  44E RT 1017 V1M M
227 00:43:54 MARING Vincent  INA 1057 V1M M
229 00:43:56 MEYER Francis  ROSHEIM 247 V1M M
231 00:43:57 ROUVIERE Bernard  OBERHOFFEN 391 V1M M
233 00:44:00 NEUMULLER RICHARD  PFETTISHEIM 1256 V1M M
234 00:44:06 AMBIEHL Marc  EBERSHEIM 204 V1M M
235 00:44:09 GERLINGER Emmanuel  ROSHEIM 151 V1M M
240 00:44:12 BONNEVILLE GUY  ES 686 V1M M
244 00:44:16 REHM Daniel  CLESTRA 720 V1M M
246 00:44:18 MEYER Raoul  TRUCHTERSHEIM 221 V1M M
249 00:44:23 IMBS Gaston  AUENHEIM 301 V1M M
252 00:44:29 SCHMITT Jospeh  SRO 632 V1M M
253 00:44:31 GEGEN Thierry  HOENHEIM 563 V1M M
259 00:44:35 STROH Claude  Messier Bugatti 1092 V1M M
260 00:44:35 Hourt Guy  CA MALLING 321 V1M M
264 00:44:38 DOLLE Pierre  MAISONSGOUTTE 725 V1M M
265 00:44:39 DEKOKER Guillaume  ASC Hager Tehalit Flash 1125 V1M M
270 00:44:46 EHRHARD Dominique  STRACEL 182 V1M M
274 00:44:50 FATH Jean Marc  OBERHAUSBERGEN 1055 V1M M
275 00:44:51 KIEFFER Bernard  COLMAR 840 V1M M
276 00:44:51 FISCHER Thierry  AERE 372 V1M M
283 00:44:57 DULOISY Hubert  STRASBOURG 243 V1M M
284 00:44:58 DIETZ André  COOP ALSACE 667 V1M M
285 00:44:58 PATY Laurent  VC-ECKVERSHEIM 302 V1M M
294 00:45:02 DUFFAU Patrick  CSC Kronenbourg 532 V1M M
295 00:45:02 BURET Paul Jean  SAVERNE-BONHEUR 97 V1M M
296 00:45:03 HIRTZ Bernard  ASC Hager Tehalit Flash 1136 V1M M
297 00:45:04 WESPISER Pascal  AS TRIUMPH 362 V1M M
298 00:45:05 JUNG Jean Marie  CAP Dinsheim 552 V1M M
301 00:45:07 MATHIS Denis  CS-REISCHTETT-Handball 268 V1M M
303 00:45:09 HANFF Gilbert  CA MALLING 322 V1M M
305 00:45:10 BECK Christian  OBERNAI 426 V1M M
308 00:45:11 KRUMM Jean Robert  HAGUENAU 1168 V1M M
311 00:45:17 Thiers Jean Marie  Mutzig 1487 V1M M
312 00:45:18 SCHOPP PATRICK  ECKBOLSHEIM 1421 V1M M
318 00:45:25 KINTZ Claude  STRACEL 416 V1M M
324 00:45:31 ZERR Jean Louis  DACHSTEIN 125 V1M M

Début  Précédent 1 2 3 4 Suivant  Fin  











Made In ALSACE


Le-Sportif est la seule plateforme d'inscription en ligne Made in Alsace



















COPYRIGHT / RESPONSABILITE
Toute reproduction de notre calendrier (qu'elle soit partielle ou complète) ou d'une fiche descriptive pour un usage autre que personnel, ou toute utilisation dans le cadre d'une prospection commerciale des coordonnées diffusées donnera lieu immédiatement à une procédure en justice.

Les résultats sont diffusés à titre indicatif sur la base d'informations déclaratives lors de l'inscription, et communiquées par les chronométreurs ou les organisateurs. La responsabilité de Le-Sportif.com ne pourra en aucun cas être engagée en cas de contestation ou litige sur les dites informations.



Copyright © 2002 - 2020 / Studiodev SARL / Le-Sportif / Registration4all
All rights reserved.
CNIL declaration number: 1999972